User: anonymous   Login
Location: Boitzum
(52.1496°N, 9.6943°E)
Time: 14:50:26
(UTC+00:00)
Language:

Cosmos 2228 Rocket - Orbit

View from above orbital plane
View from above orbital plane
View from above satellite
View from above satellite

Ground track
Ground track

The orbit is defined by the following mean orbital elements,

1 22287U          26074.23942078 +.00000000 +00000-0 +50743-4 0 00001
2 22287  82.5275 347.6985 0022831 321.3624  38.5955 14.80056997    05
Epoch (UTC): 15 March 2026 05:44:45
Eccentricity: 0.0022831
inclination: 82.5275°
perigee height: 613 km
apogee height: 645 km
right ascension of ascending node: 347.6985°
argument of perigee: 321.3624°
revolutions per day: 14.80056997
mean anomaly at epoch: 38.5955°

The dashed part of the orbit path shows where the satellite is in the earth's shadow,  

DLR